* Astronomy

Members Login
Username 
 
Password 
    Remember Me  
Post Info TOPIC: Asteroid 2012 JM4


L

Posts: 131433
Date:
Asteroid 2012 JM4
Permalink  
 


Orbital elements:
2012 JM4                                                 Earth MOID = 0.2522 AU
Epoch 2012 Mar. 14.0 TT = JDT 2456000.5                 MPC
M 332.78049              (2000.0)            P               Q
n   0.36573679     Peri.  286.77913     -0.45732678     +0.88860002
a   1.9365273      Node   315.95097     -0.79539372     -0.42644022
e   0.3497159      Incl.    2.90572     -0.39774496     -0.16893416
P   2.69           H   21.2           G   0.15           U   7

MPEC 2012 - J42



__________________
Page 1 of 1  sorted by
 
Quick Reply

Please log in to post quick replies.



Create your own FREE Forum
Report Abuse
Powered by ActiveBoard